[[{"header":{"parameterUnit":"m.s-1","parameterCategory":1,"la1":30.2991,"la2":30.254,"lo1":-89.0895,"lo2":-89.0444,"dy":0.0017,"dx":0.0017,"nx":28,"ny":28,"refTime":"2025-04-10T09:00:00:Z","depth":0,"parameterNumber":2,"parameterNumberName":"U-component_of_WINDS"},"data":[0,0,0,0,0,0,0,0,0,0,0,0,0,0,0,0,0,0,0,0,0,0,0,0,0,0,0,0,0,0,0,0,0,0,0,0,0,0,0,0,0,0,0,0,0,0,0,0,0,0,0,0,0,0,0,0,0,0,2.7846,2.7847,0,2.7923,2.7924,2.7925,2.783,2.7827,2.7823,2.782,2.7901,2.7906,2.7912,0,0,0,0,0,0,0,0,0,0,0,0,0,2.7616,2.7621,2.7846,2.7847,2.7848,2.7923,2.7924,2.7925,2.7831,2.7827,2.7822,2.7818,2.7899,2.7906,2.7912,0,0,0,0,0,0,0,0,0,0,0,0,0,2.7707,2.7623,2.7846,2.781,2.7807,2.7923,2.7924,2.7926,2.7832,2.7827,2.7821,2.7816,2.7897,2.7905,2.7913,2.8069,0,0,2.7938,2.7942,0,0,0,0,0,0,0,0,2.7702,2.7716,2.7814,2.7812,2.781,2.7862,2.7873,2.7974,2.7833,2.7823,2.782,2.7814,2.7892,2.7901,2.7927,2.8072,2.8076,2.7939,2.7944,2.7947,2.7949,0,0,0,0,0,0,0,2.7696,2.7712,2.7877,2.7816,2.7813,2.779,2.7797,2.7892,2.7886,2.7823,2.7816,2.7827,2.789,2.7919,2.7928,2.8077,2.7939,2.7946,2.7951,2.7954,2.8352,2.8358,0,0,0,0,0,0,2.7694,2.7707,2.7874,2.7879,2.7742,2.7798,2.7806,2.7851,2.7885,2.7885,2.7831,2.7822,2.7908,2.7919,2.793,2.8113,2.7947,2.7955,2.7959,2.8346,2.8353,2.836,0,0,0,0,0,0,2.7689,2.771,2.7871,2.7791,2.781,2.7808,2.7858,2.7855,2.7883,2.7891,2.7889,2.7862,2.7904,2.7919,2.8034,2.8115,2.7958,2.7966,2.834,2.8349,2.8356,2.8481,0,0,0,0,0,0,2.7683,2.7709,2.7768,2.7793,2.7815,2.7974,2.7863,2.786,2.7898,2.7886,2.7919,2.792,2.7901,2.8023,2.8043,2.8123,2.7972,2.8333,2.8344,2.8354,2.847,2.8493,2.8513,0,0,0,0,0,2.7675,2.7801,2.7771,2.7792,2.7888,2.7979,2.7991,2.7967,2.7905,2.7964,2.7968,2.7918,2.8103,2.8035,2.8057,2.8141,2.8327,2.8341,2.8353,2.846,2.8488,2.8512,0,0,0,0,0,0,2.7785,2.7803,2.7771,2.7908,2.7943,2.7963,2.8037,2.7998,2.8051,2.8038,2.8006,2.8015,2.8137,2.8151,2.8075,2.8292,2.8205,2.8223,2.8279,2.8306,2.8327,2.8321,2.7979,0,0,0,0,0,2.7825,2.7897,2.7909,2.8029,2.8048,2.804,2.8078,2.8056,2.8091,2.8105,2.8118,2.8154,2.8219,2.8263,2.8324,2.8471,2.8476,2.854,2.8561,2.8579,2.8594,2.8671,2.8699,2.8402,2.8402,2.8401,0,0,2.7909,2.7928,2.7975,2.8051,2.8075,2.815,2.8052,2.8136,2.8191,2.8118,2.8227,2.8238,2.8275,2.8407,2.8466,2.8422,2.8678,2.8595,2.8609,2.8615,2.8687,2.8716,2.8741,2.841,2.8409,2.8407,0,0,2.81,2.8122,2.8223,2.8249,2.8286,2.8279,2.8304,2.833,2.8334,2.8443,2.8389,2.8454,2.8568,2.8597,2.8626,2.8826,2.8782,2.8847,2.8959,2.9034,2.9058,2.9078,2.9149,2.9174,2.8863,2.8863,2.8863,0,2.8199,2.8309,2.828,2.8367,2.8402,2.8338,2.844,2.8467,2.8523,2.8548,2.8498,2.8639,2.866,2.8797,2.8845,2.8872,2.8898,2.8843,2.9057,2.9077,2.9096,2.9162,2.9189,2.8871,2.887,2.8869,2.8868,0,2.8429,2.8506,2.8584,2.8638,2.8681,2.8776,2.8761,2.8808,2.8782,2.8781,2.8892,2.8915,2.8979,2.901,2.8986,2.9143,2.9114,2.9062,2.8973,2.9132,2.9194,2.922,2.8882,2.8879,2.8877,2.8875,0,0,2.8692,2.8727,2.8756,2.8779,2.8815,2.8874,2.8965,2.9027,2.9067,2.9108,2.9183,2.928,2.9231,2.9265,2.9244,2.931,2.9465,2.9249,2.9249,2.9287,2.9638,2.9677,2.9707,2.9436,2.9441,2.9445,2.9634,0,2.8882,2.9038,2.9014,2.9166,2.9236,2.9176,2.9255,2.9285,2.9286,2.9346,2.9347,2.9416,2.9346,2.9366,2.9429,2.9433,2.9535,2.9419,2.9506,2.9509,2.9497,2.9739,2.9781,2.9959,2.9658,2.9663,2.9666,0,2.9125,2.9172,2.933,2.9353,2.9382,2.9454,2.9507,2.9565,2.9598,2.9594,2.9631,2.9597,2.9687,2.9598,2.9721,2.9643,2.9677,2.9684,2.969,2.9697,2.9597,2.9752,3.0015,3.0042,2.9704,2.9701,2.9698,0,2.9299,2.9403,2.951,2.9532,2.9562,2.9614,2.9629,2.9656,2.9694,2.9741,2.9765,2.9823,2.9854,2.9899,2.9882,2.9818,3.0009,2.9918,3.0007,3.0008,3.005,3.0048,3.0322,3.0074,3.0073,3.0073,3.0072,0,2.9513,2.9612,2.9589,2.9655,2.9764,2.9735,2.9843,2.9851,2.9876,2.9942,2.9894,2.9957,2.9931,2.9992,2.9979,3.0083,3.0098,3.0097,3.0092,3.0101,3.0101,3.0122,3.0109,3.008,3.0078,3.0077,3.0076,0,2.9726,2.9715,2.9828,2.9847,2.9853,2.9933,2.9948,3.001,3.0007,3.0091,3.011,3.0105,3.0175,3.0161,3.0239,3.023,3.036,3.034,3.0348,3.0343,3.0434,3.0425,3.0731,3.0769,3.0497,3.0499,3.0501,0,2.9864,2.9938,2.9964,3.0004,3.0023,3.0089,3.0127,3.0101,3.0143,3.0185,3.0242,3.0307,3.0357,3.0472,3.0475,3.0534,3.0515,3.0618,3.0524,3.0529,3.0515,3.0511,3.0518,3.0637,3.064,3.0642,3.0644,0,3.0108,3.0098,3.0154,3.0209,3.0255,3.0297,3.0334,3.037,3.0347,3.0396,3.0466,3.0506,3.0584,3.0649,3.0703,3.0718,3.0678,3.0674,3.0698,3.0707,3.0708,3.0708,3.0398,3.0667,3.0665,3.0663,3.0662,3.0661,3.0287,3.035,3.0377,3.0441,3.0466,3.0501,3.0559,3.0563,3.0621,3.0681,3.0663,3.0742,3.0772,3.084,3.0862,3.0923,3.0885,3.092,3.0928,3.0937,3.0948,3.0699,3.0933,3.0933,3.0932,3.0931,3.0931,0,3.0528,3.0542,3.0601,3.0654,3.0704,3.066,3.0699,3.0743,3.0814,3.0844,3.0895,3.0975,3.1037,3.1045,3.1104,3.1152,3.1135,3.1168,3.1164,3.1168,3.0979,3.0952,3.1181,3.1181,3.1181,3.1181,3.1181,3.1181,3.066,3.0763,3.0756,3.087,3.0884,3.0961,3.0986,3.1018,3.1042,3.1133,3.1185,3.1189,3.121,3.127,3.1325,3.1326,3.1349,3.139,3.1384,3.1207,3.1182,3.1158,3.1132,3.1396,3.1396,3.1567,3.1569,3.157]},{"header":{"parameterUnit":"m.s-1","parameterCategory":1,"la1":30.2991,"la2":30.254,"lo1":-89.0895,"lo2":-89.0444,"dy":0.0017,"dx":0.0017,"nx":28,"ny":28,"refTime":"2025-04-10T09:00:00:Z","depth":0,"parameterNumber":3,"parameterNumberName":"V-component_of_WINDS"},"data":[0,0,0,0,0,0,0,0,0,0,0,0,0,0,0,0,0,0,0,0,0,0,0,0,0,0,0,0,0,0,0,0,0,0,0,0,0,0,0,0,0,0,0,0,0,0,0,0,0,0,0,0,0,0,0,0,0,0,1.4379,1.4383,0,1.4722,1.4725,1.4729,1.481,1.4808,1.4805,1.4803,1.5161,1.5172,1.5184,0,0,0,0,0,0,0,0,0,0,0,0,0,1.38,1.381,1.4379,1.4383,1.4387,1.4721,1.4726,1.473,1.481,1.4807,1.4805,1.4802,1.5157,1.5171,1.5185,0,0,0,0,0,0,0,0,0,0,0,0,0,1.4088,1.3813,1.4378,1.4467,1.4479,1.472,1.4726,1.4732,1.4811,1.4807,1.4804,1.4801,1.5152,1.5169,1.5187,1.5366,0,0,1.524,1.5248,0,0,0,0,0,0,0,0,1.4071,1.4109,1.445,1.4462,1.4475,1.4719,1.4653,1.4944,1.4812,1.4685,1.4803,1.4799,1.5017,1.5046,1.5118,1.5382,1.5398,1.5242,1.5253,1.526,1.5265,0,0,0,0,0,0,0,1.4051,1.4095,1.4515,1.4455,1.447,1.4492,1.4529,1.4708,1.4867,1.4696,1.4702,1.4741,1.5023,1.5101,1.5127,1.5403,1.5241,1.5257,1.5268,1.5275,1.5832,1.5836,0,0,0,0,0,0,1.4015,1.4078,1.4504,1.4525,1.426,1.4505,1.4547,1.4644,1.4865,1.4895,1.4744,1.4744,1.5072,1.5106,1.514,1.5364,1.526,1.5276,1.5287,1.5827,1.5833,1.5837,0,0,0,0,0,0,1.4002,1.4052,1.449,1.4303,1.4361,1.4519,1.4628,1.4653,1.473,1.4902,1.4931,1.4794,1.5071,1.5115,1.5308,1.5378,1.5284,1.53,1.5822,1.5829,1.5835,1.5813,0,0,0,0,0,0,1.3985,1.4047,1.4115,1.4304,1.437,1.4651,1.4632,1.4662,1.476,1.4763,1.4956,1.4985,1.5072,1.5282,1.5326,1.54,1.5314,1.5817,1.5825,1.5833,1.5809,1.5818,1.5826,0,0,0,0,0,1.3964,1.4097,1.4119,1.417,1.4459,1.4655,1.4693,1.4789,1.4765,1.4836,1.4946,1.4978,1.5362,1.5301,1.5351,1.5432,1.5813,1.5823,1.5832,1.5805,1.5816,1.5826,0,0,0,0,0,0,1.3916,1.4124,1.415,1.4347,1.4482,1.4668,1.4761,1.4798,1.4945,1.4942,1.5056,1.5099,1.5285,1.5378,1.5306,1.5616,1.5587,1.5607,1.5549,1.5562,1.557,1.5545,1.5329,0,0,0,0,0,1.3927,1.4067,1.4243,1.44,1.4466,1.4601,1.4691,1.4752,1.4898,1.4956,1.508,1.5222,1.5375,1.5473,1.5623,1.5822,1.5866,1.5902,1.5911,1.5917,1.5934,1.6046,1.6064,1.5869,1.5869,1.5868,0,0,1.3955,1.4085,1.4167,1.4394,1.4506,1.465,1.4649,1.4802,1.4911,1.498,1.517,1.5265,1.5432,1.5628,1.5721,1.5711,1.5997,1.5929,1.5933,1.5947,1.6057,1.6076,1.6092,1.5875,1.5874,1.5873,0,0,1.4078,1.419,1.4333,1.4445,1.4613,1.4702,1.4736,1.4916,1.4981,1.5173,1.5228,1.5359,1.562,1.5736,1.5829,1.5993,1.6029,1.6038,1.6086,1.6193,1.6209,1.6223,1.6282,1.6302,1.6054,1.6054,1.6054,0,1.4091,1.4308,1.4403,1.4553,1.4651,1.4717,1.4864,1.4969,1.5178,1.5246,1.5231,1.5558,1.5675,1.5899,1.5939,1.6012,1.6055,1.6018,1.6198,1.6214,1.6228,1.6286,1.6308,1.6054,1.6054,1.6054,1.6054,0,1.4316,1.4465,1.4561,1.4759,1.4868,1.5016,1.5135,1.5234,1.5286,1.5376,1.557,1.5712,1.5891,1.5949,1.6002,1.6181,1.617,1.6175,1.6149,1.6245,1.6302,1.6325,1.6054,1.6054,1.6054,1.6054,0,0,1.442,1.4666,1.47,1.479,1.498,1.5099,1.5249,1.5422,1.5505,1.5647,1.5778,1.5995,1.6001,1.6106,1.6173,1.6267,1.6388,1.6262,1.6267,1.6281,1.6595,1.659,1.6614,1.6412,1.6417,1.6421,1.6581,0,1.4567,1.4836,1.4925,1.515,1.5289,1.5353,1.5485,1.5616,1.5704,1.5838,1.5936,1.6088,1.6084,1.6148,1.6244,1.6353,1.6453,1.6343,1.6537,1.6542,1.6494,1.6644,1.664,1.6785,1.6604,1.6608,1.6611,0,1.4774,1.4916,1.5153,1.5324,1.5387,1.5503,1.5668,1.5794,1.5944,1.6002,1.6118,1.6177,1.6338,1.63,1.6525,1.6447,1.6532,1.6597,1.6605,1.6628,1.6583,1.6672,1.6834,1.6855,1.6646,1.6643,1.6641,0,1.4827,1.5078,1.5252,1.5327,1.5531,1.5611,1.57,1.5847,1.5945,1.609,1.6155,1.6317,1.6406,1.6532,1.6633,1.6596,1.6849,1.6819,1.6903,1.69,1.6955,1.695,1.7133,1.7006,1.7006,1.7006,1.7005,0,1.4982,1.5125,1.5278,1.5385,1.5548,1.5649,1.5808,1.5901,1.6031,1.6158,1.6224,1.6343,1.6469,1.6605,1.6685,1.6859,1.6899,1.6951,1.6971,1.6946,1.694,1.7004,1.6997,1.7012,1.701,1.7009,1.7008,0,1.5069,1.5177,1.5372,1.5547,1.5595,1.5707,1.5858,1.5966,1.6055,1.6216,1.626,1.6402,1.6565,1.6677,1.6888,1.6942,1.713,1.7148,1.7078,1.7088,1.7165,1.7157,1.7397,1.7434,1.7282,1.7283,1.7284,0,1.5162,1.5273,1.5459,1.5548,1.5636,1.5779,1.5879,1.5983,1.6084,1.6263,1.6349,1.6516,1.6655,1.6912,1.7036,1.7196,1.722,1.7293,1.7245,1.7216,1.7222,1.7214,1.7226,1.7301,1.7302,1.7303,1.7303,0,1.5315,1.5362,1.5501,1.5659,1.5775,1.5905,1.6036,1.6106,1.6233,1.6344,1.651,1.6617,1.683,1.6995,1.7167,1.7262,1.7305,1.7317,1.7345,1.7321,1.7276,1.7302,1.7099,1.7312,1.7311,1.731,1.731,1.731,1.5409,1.551,1.5656,1.5809,1.5918,1.6038,1.6147,1.6249,1.6389,1.6568,1.6622,1.6794,1.6942,1.7177,1.7273,1.7411,1.7406,1.7446,1.7457,1.7465,1.7465,1.7253,1.7443,1.7443,1.7443,1.7443,1.7443,0,1.5565,1.5662,1.5801,1.5981,1.6101,1.6127,1.6273,1.6373,1.6523,1.6656,1.679,1.6981,1.7141,1.7275,1.7441,1.7526,1.755,1.7566,1.7561,1.7582,1.746,1.7419,1.7544,1.7544,1.7544,1.7544,1.7544,1.7543,1.5661,1.5834,1.5898,1.6125,1.6222,1.639,1.6471,1.6582,1.6689,1.6897,1.703,1.7115,1.7249,1.7425,1.7573,1.7609,1.7667,1.7679,1.7719,1.7603,1.7591,1.758,1.7543,1.7691,1.7691,1.783,1.7832,1.7833]}]]